| time (UTC) | temp F | wind direction | speed MPH | gust MPH | rain 1hr in | rain 24hr in | rain mn in | humidity % | barometer mb |
| 20260904031609 | 80 | 231 | 0.0 | 4.0 | 0.00 | 0.00 | 0.00 | 66 | 1020.5 |
| 20260904030059 | 81 | 248 | 1.0 | 5.0 | 0.00 | 0.00 | 0.00 | 64 | 1020.3 |
| 20260904024604 | 82 | 236 | 1.0 | 4.0 | 0.00 | 0.00 | 0.00 | 64 | 1020.1 |
| 20260904023051 | 82 | 236 | 0.0 | 2.0 | 0.00 | 0.00 | 0.00 | 63 | 1019.9 |
| 20260904021554 | 83 | 231 | 0.0 | 2.0 | 0.00 | 0.00 | 0.00 | 62 | 1020.1 |
| 20260904020043 | 83 | 201 | 0.0 | 0.0 | 0.00 | 0.00 | 0.00 | 62 | 1020.1 |
| 20260904014602 | 83 | 201 | 0.0 | 1.0 | 0.00 | 0.00 | 0.00 | 62 | 1020.1 |
| 20260904013032 | 83 | 202 | 0.0 | 2.0 | 0.00 | 0.00 | 0.00 | 63 | 1020.3 |
| 20260904011541 | 83 | 197 | 0.0 | 2.0 | 0.00 | 0.00 | 0.00 | 63 | 1020.3 |
| 20260904010009 | 83 | 193 | 0.0 | 2.0 | 0.00 | 0.00 | 0.00 | 63 | 1020.4 |
| 20260904004541 | 83 | 163 | 0.0 | 3.0 | 0.00 | 0.00 | 0.00 | 63 | 1020.6 |
| 20260904003034 | 83 | 128 | 1.0 | 4.0 | 0.00 | 0.00 | 0.00 | 63 | 1020.5 |
| 20260904001535 | 84 | 225 | 0.0 | 1.0 | 0.00 | 0.00 | 0.00 | 62 | 1020.4 |
| 20260904000142 | 84 | 224 | 0.0 | 2.0 | 0.00 | 0.00 | 0.00 | 61 | 1020.5 |
| 20260903234617 | 85 | 158 | 0.0 | 1.0 | 0.00 | 0.00 | 0.00 | 60 | 1020.5 |
| 20260903233112 | 85 | 236 | 0.0 | 1.0 | 0.00 | 0.00 | 0.00 | 60 | 1020.5 |
| 20260903231626 | 86 | 236 | 0.0 | 1.0 | 0.00 | 0.00 | 0.00 | 59 | 1020.4 |
| 20260903230105 | 86 | 238 | 0.0 | 3.0 | 0.00 | 0.00 | 0.00 | 58 | 1020.4 |
| 20260903224600 | 86 | 242 | 0.0 | 1.0 | 0.00 | 0.00 | 0.00 | 58 | 1020.3 |
| 20260903223053 | 86 | 242 | 0.0 | 1.0 | 0.00 | 0.00 | 0.00 | 58 | 1020.2 |
| 20260903221554 | 86 | 242 | 0.0 | 1.0 | 0.00 | 0.00 | 0.00 | 58 | 1020.2 |
| 20260903220043 | 87 | 241 | 0.0 | 1.0 | 0.00 | 0.00 | 0.00 | 58 | 1020.0 |
| 20260903214549 | 87 | 284 | 0.0 | 1.0 | 0.00 | 0.00 | 0.00 | 57 | 1019.9 |
| 20260903213039 | 88 | 233 | 0.0 | 1.0 | 0.00 | 0.00 | 0.00 | 56 | 1019.9 |
| 20260903211505 | 89 | 226 | 0.0 | 2.0 | 0.00 | 0.00 | 0.00 | 55 | 1020.0 |
| 20260903210115 | 90 | 248 | 0.0 | 1.0 | 0.00 | 0.00 | 0.00 | 54 | 1019.7 |
| 20260903204615 | 92 | 219 | 0.0 | 1.0 | 0.00 | 0.00 | 0.00 | 51 | 1019.5 |
| 20260903203003 | 93 | 248 | 0.0 | 4.0 | 0.00 | 0.00 | 0.00 | 49 | 1019.3 |
| 20260903201505 | 94 | 240 | 1.0 | 6.0 | 0.00 | 0.00 | 0.00 | 48 | 1019.0 |
| 20260903200113 | 95 | 239 | 1.0 | 4.0 | 0.00 | 0.00 | 0.00 | 46 | 1019.0 |
| 20260903194616 | 96 | 248 | 0.0 | 5.0 | 0.00 | 0.00 | 0.00 | 44 | 1018.8 |
| 20260903193111 | 97 | 212 | 1.0 | 8.0 | 0.00 | 0.00 | 0.00 | 41 | 1018.6 |
| 20260903191611 | 99 | 240 | 1.0 | 8.0 | 0.00 | 0.00 | 0.00 | 31 | 1018.4 |
| 20260903190115 | 102 | 215 | 7.0 | 15.0 | 0.00 | 0.00 | 0.00 | 25 | 1018.3 |
| 20260903184503 | 105 | 49 | 0.0 | 1.0 | 0.00 | 0.00 | 0.00 | 17 | 1017.9 |
| 20260903183113 | 105 | 49 | 0.0 | 1.0 | 0.00 | 0.00 | 0.00 | 16 | 1017.9 |
| 20260903181609 | 106 | 46 | 0.0 | 1.0 | 0.00 | 0.00 | 0.00 | 16 | 1017.9 |
| 20260903180100 | 108 | 25 | 0.0 | 1.0 | 0.00 | 0.00 | 0.00 | 16 | 1017.9 |
| 20260903174555 | 108 | 48 | 0.0 | 4.0 | 0.00 | 0.00 | 0.00 | 16 | 1017.9 |
| 20260903173041 | 108 | 92 | 0.0 | 2.0 | 0.00 | 0.00 | 0.00 | 17 | 1017.9 |
| 20260903171553 | 108 | 56 | 0.0 | 2.0 | 0.00 | 0.00 | 0.00 | 17 | 1017.8 |
| 20260903170054 | 108 | 82 | 1.0 | 5.0 | 0.00 | 0.00 | 0.00 | 17 | 1017.8 |
| 20260903164543 | 109 | 5 | 0.0 | 3.0 | 0.00 | 0.00 | 0.00 | 16 | 1017.8 |
| 20260903163100 | 109 | 52 | 0.0 | 3.0 | 0.00 | 0.00 | 0.00 | 16 | 1017.8 |
| 20260903161511 | 109 | 91 | 1.0 | 5.0 | 0.00 | 0.00 | 0.00 | 17 | 1017.8 |
| 20260903160009 | 109 | 77 | 0.0 | 4.0 | 0.00 | 0.00 | 0.00 | 17 | 1017.7 |
| 20260903154535 | 110 | 49 | 0.0 | 4.0 | 0.00 | 0.00 | 0.00 | 16 | 1017.8 |
| 20260903153009 | 110 | 229 | 0.0 | 1.0 | 0.00 | 0.00 | 0.00 | 16 | 1017.9 |
| 20260903151534 | 109 | 83 | 1.0 | 5.0 | 0.00 | 0.00 | 0.00 | 17 | 1018.1 |
| 20260903150040 | 110 | 219 | 0.0 | 1.0 | 0.00 | 0.00 | 0.00 | 15 | 1018.2 |
| 20260903144530 | 109 | 89 | 1.0 | 5.0 | 0.00 | 0.00 | 0.00 | 15 | 1018.3 |
| 20260903143115 | 108 | 62 | 2.0 | 5.0 | 0.00 | 0.00 | 0.00 | 17 | 1018.4 |
| 20260903141617 | 108 | 78 | 1.0 | 9.0 | 0.00 | 0.00 | 0.00 | 18 | 1018.5 |
| 20260903140106 | 107 | 63 | 1.0 | 6.0 | 0.00 | 0.00 | 0.00 | 19 | 1018.6 |
| 20260903134608 | 107 | 46 | 2.0 | 8.0 | 0.00 | 0.00 | 0.00 | 18 | 1018.7 |
| 20260903133105 | 107 | 346 | 0.0 | 6.0 | 0.00 | 0.00 | 0.00 | 20 | 1018.7 |
| 20260903131555 | 108 | 6 | 0.0 | 5.0 | 0.00 | 0.00 | 0.00 | 19 | 1018.9 |
| 20260903130047 | 107 | 72 | 0.0 | 3.0 | 0.00 | 0.00 | 0.00 | 20 | 1019.0 |
| 20260903124600 | 107 | 190 | 0.0 | 2.0 | 0.00 | 0.00 | 0.00 | 20 | 1019.1 |
| 20260903123038 | 105 | 84 | 0.0 | 4.0 | 0.00 | 0.00 | 0.00 | 22 | 1019.2 |
| 20260903121542 | 104 | 94 | 0.0 | 5.0 | 0.00 | 0.00 | 0.00 | 22 | 1019.3 |
| 20260903120039 | 104 | 77 | 1.0 | 4.0 | 0.00 | 0.00 | 0.00 | 24 | 1019.5 |
| 20260903114504 | 103 | 100 | 0.0 | 5.0 | 0.00 | 0.00 | 0.00 | 25 | 1019.7 |
| 20260903113111 | 101 | 29 | 1.0 | 13.0 | 0.00 | 0.00 | 0.00 | 28 | 1019.9 |
| 20260903111619 | 100 | 133 | 1.0 | 8.0 | 0.00 | 0.00 | 0.00 | 29 | 1020.0 |
| 20260903110105 | 99 | 79 | 2.0 | 6.0 | 0.00 | 0.00 | 0.00 | 30 | 1020.1 |
| 20260903104608 | 99 | 128 | 0.0 | 2.0 | 0.00 | 0.00 | 0.00 | 30 | 1020.2 |
| 20260903103052 | 97 | 84 | 1.0 | 9.0 | 0.00 | 0.00 | 0.00 | 33 | 1020.3 |
| 20260903101545 | 96 | 109 | 1.0 | 4.0 | 0.00 | 0.00 | 0.00 | 36 | 1020.5 |
| 20260903100038 | 95 | 84 | 2.0 | 5.0 | 0.00 | 0.00 | 0.00 | 38 | 1020.5 |
| 20260903094505 | 93 | 56 | 1.0 | 4.0 | 0.00 | 0.00 | 0.00 | 40 | 1020.5 |
| 20260903093130 | 92 | 113 | 0.0 | 4.0 | 0.00 | 0.00 | 0.00 | 42 | 1020.4 |
| 20260903091611 | 90 | 74 | 0.0 | 2.0 | 0.00 | 0.00 | 0.00 | 46 | 1020.4 |
| 20260903090109 | 89 | 72 | 0.0 | 4.0 | 0.00 | 0.00 | 0.00 | 47 | 1020.3 |
| 20260903084603 | 87 | 77 | 0.0 | 2.0 | 0.00 | 0.00 | 0.00 | 49 | 1020.2 |
| 20260903083059 | 85 | 99 | 0.0 | 2.0 | 0.00 | 0.00 | 0.00 | 52 | 1020.3 |
| 20260903081558 | 83 | 30 | 0.0 | 3.0 | 0.00 | 0.00 | 0.00 | 56 | 1020.2 |
| 20260903080047 | 81 | 220 | 0.0 | 1.0 | 0.00 | 0.00 | 0.00 | 61 | 1020.3 |
| 20260903074551 | 82 | 219 | 0.0 | 0.0 | 0.00 | 0.00 | 0.00 | 62 | 1020.2 |
| 20260903073050 | 81 | 219 | 0.0 | 0.0 | 0.00 | 0.00 | 0.00 | 62 | 1020.1 |
| 20260903071610 | 79 | 219 | 0.0 | 0.0 | 0.00 | 0.00 | 0.00 | 64 | 1020.2 |
| 20260903064551 | 79 | 219 | 0.0 | 0.0 | 0.00 | 0.00 | 0.00 | 67 | 1019.9 |
| 20260903063048 | 77 | 219 | 0.0 | 0.0 | 0.00 | 0.00 | 0.00 | 70 | 1019.9 |
| 20260903061546 | 76 | 219 | 0.0 | 1.0 | 0.00 | 0.00 | 0.00 | 71 | 1019.7 |
| 20260903060048 | 76 | 219 | 0.0 | 1.0 | 0.00 | 0.00 | 0.00 | 71 | 1019.5 |
| 20260903054546 | 76 | 219 | 0.0 | 0.0 | 0.00 | 0.00 | 0.00 | 71 | 1019.3 |
| 20260903053034 | 76 | 219 | 0.0 | 1.0 | 0.00 | 0.00 | 0.00 | 70 | 1019.3 |
| 20260903051511 | 77 | 219 | 0.0 | 0.0 | 0.00 | 0.00 | 0.00 | 69 | 1019.3 |
| 20260903050035 | 77 | 219 | 0.0 | 0.0 | 0.00 | 0.00 | 0.00 | 70 | 1019.2 |
| 20260903044548 | 77 | 219 | 0.0 | 1.0 | 0.00 | 0.00 | 0.00 | 69 | 1019.2 |
| 20260903043005 | 78 | 224 | 0.0 | 1.0 | 0.00 | 0.00 | 0.00 | 67 | 1019.2 |
| 20260903041517 | 78 | 242 | 0.0 | 1.0 | 0.00 | 0.00 | 0.00 | 70 | 1019.2 |
| 20260903040002 | 78 | 242 | 0.0 | 0.0 | 0.00 | 0.00 | 0.00 | 69 | 1019.0 |
| 20260903034614 | 78 | 242 | 0.0 | 1.0 | 0.00 | 0.00 | 0.00 | 67 | 1019.1 |
| 20260903033111 | 78 | 241 | 0.0 | 1.0 | 0.00 | 0.00 | 0.00 | 65 | 1019.3 |